Noble, IL

10:23 PM CST on December 04, 2016 (GMT -0600)
Olney-Noble

Weather History for KOLY - February, 2013

Change the Weather History Date:

Monday, February 25, 2013

  Actual Average (KEVV) Record (KEVV)
Temperature  
Mean Temperature 39 °F 40 °F  
Max Temperature 48 °F 49 °F 76 °F (2000)
Min Temperature 30 °F 30 °F -3 °F (1967)
Degree Days  
Heating Degree Days 26 25  
Month to date heating degree days 721  
Since 1 July heating degree days 3500  
Cooling Degree Days 0 0  
Month to date cooling degree days 0  
Year to date cooling degree days 0  
Moisture  
Dew Point 30 °F    
Average Humidity 68    
Maximum Humidity 93    
Minimum Humidity 50    
Precipitation  
Precipitation 0.00 in 0.11 in 1.56 in (1929)
Month to date precipitation 2.83  
Year to date precipitation 5.93  
Snow  
Snow 0.00 in 0.10 in 10.90 in (1993)
Month to date snowfall 3.5  
Since 1 July snowfall 10.4  
Snow Depth -    
Sea Level Pressure  
Sea Level Pressure 29.95 in    
Wind  
Wind Speed 10 mph (ENE)    
Max Wind Speed 25 mph    
Max Gust Speed 31 mph    
Visibility 10 miles    
Events Rain    
T = Trace of Precipitation, MM = Missing Value Source: NWS Daily Summary

Daily Weather History Graph

Daily Weather History Graph

Search for Another Location

Airport or City:

Trip Planner

Search our weather history database for the weather conditions in past years. The results will help you decide how hot, cold, wet, or windy it might be!

Date:

Astronomy

Feb. 25, 2013 Rise Set
Actual Time 6:30 AM CST 5:41 PM CST
Civil Twilight 6:03 AM CST 6:08 PM CST
Nautical Twilight 5:32 AM CST 6:39 PM CST
Astronomical Twilight 5:01 AM CST 7:10 PM CST
Moon 5:54 PM CST (2/25) 6:00 AM CST (2/25)
Length of Visible Light 12h 05m
Length of Day
11h 11m
Full, 100% of the Moon is Illuminated
Feb 25
Full
Feb 25
Full
Mar 4
Last Quarter
Mar 11
New
Mar 19
First Quarter

Hourly Weather History & Observations

Time (CST) Temp. Windchill Dew Point Humidity Pressure Visibility Wind Dir Wind Speed Gust Speed Precip Events Conditions
12:15 AM 33.8 °F 28.6 °F 28.4 °F 81% 30.07 in 10.0 mi ENE 5.8 mph - N/A   Clear
12:35 AM 33.8 °F 27.7 °F 28.4 °F 81% 30.07 in 10.0 mi ENE 6.9 mph - N/A   Clear
12:55 AM 33.8 °F 28.6 °F 28.4 °F 81% 30.07 in 10.0 mi NE 5.8 mph - N/A   Clear
1:15 AM 33.8 °F 29.6 °F 28.4 °F 81% 30.07 in 10.0 mi NE 4.6 mph - N/A   Clear
1:35 AM 33.8 °F 27.7 °F 28.4 °F 81% 30.07 in 10.0 mi NE 6.9 mph - N/A   Clear
1:55 AM 33.8 °F 27.7 °F 28.4 °F 81% 30.08 in 10.0 mi ENE 6.9 mph - N/A   Clear
2:15 AM 33.8 °F 27.7 °F 28.4 °F 81% 30.08 in 10.0 mi NE 6.9 mph - N/A   Clear
2:35 AM 32.0 °F 26.4 °F 28.4 °F 87% 30.09 in 10.0 mi ENE 5.8 mph - N/A   Clear
2:55 AM 30.2 °F 25.4 °F 26.6 °F 86% 30.08 in 10.0 mi ENE 4.6 mph - N/A   Clear
3:15 AM 32.0 °F 26.4 °F 28.4 °F 87% 30.08 in 10.0 mi ENE 5.8 mph - N/A   Clear
3:35 AM 32.0 °F 25.6 °F 28.4 °F 87% 30.08 in 10.0 mi ENE 6.9 mph - N/A   Clear
3:55 AM 30.2 °F 24.3 °F 28.4 °F 93% 30.09 in 10.0 mi ENE 5.8 mph - N/A   Clear
4:15 AM 32.0 °F 25.6 °F 26.6 °F 80% 30.09 in 10.0 mi ENE 6.9 mph - N/A   Clear
4:35 AM 30.2 °F 23.4 °F 28.4 °F 93% 30.09 in 10.0 mi ENE 6.9 mph - N/A   Clear
4:55 AM 30.2 °F 24.3 °F 26.6 °F 86% 30.09 in 10.0 mi ENE 5.8 mph - N/A   Clear
5:15 AM 30.2 °F 24.3 °F 26.6 °F 86% 30.09 in 10.0 mi ENE 5.8 mph - N/A   Clear
5:35 AM 30.2 °F 25.4 °F 26.6 °F 86% 30.09 in 10.0 mi ENE 4.6 mph - N/A   Clear
5:55 AM 30.2 °F 23.4 °F 26.6 °F 86% 30.07 in 10.0 mi ENE 6.9 mph - N/A   Clear
6:15 AM 30.2 °F 24.3 °F 26.6 °F 86% 30.07 in 10.0 mi ENE 5.8 mph - N/A   Clear
6:35 AM 30.2 °F 24.3 °F 26.6 °F 86% 30.06 in 7.0 mi ENE 5.8 mph - N/A   Clear
6:55 AM 30.2 °F 23.4 °F 28.4 °F 93% 30.06 in 7.0 mi East 6.9 mph - N/A   Clear
7:15 AM 32.0 °F 25.6 °F 28.4 °F 87% 30.07 in 7.0 mi ENE 6.9 mph - N/A   Clear
7:35 AM 33.8 °F 27.0 °F 28.4 °F 81% 30.07 in 7.0 mi ENE 8.1 mph - N/A   Clear
7:55 AM 33.8 °F 25.8 °F 28.4 °F 81% 30.07 in 7.0 mi East 10.4 mph - N/A   Clear
8:15 AM 35.6 °F 28.6 °F 28.4 °F 75% 30.07 in 7.0 mi East 9.2 mph - N/A   Clear
8:35 AM 37.4 °F 30.3 °F 28.4 °F 70% 30.07 in 10.0 mi East 10.4 mph - N/A   Clear
8:55 AM 37.4 °F 30.3 °F 28.4 °F 70% 30.07 in 10.0 mi East 10.4 mph - N/A   Clear
9:15 AM 39.2 °F 33.0 °F 30.2 °F 70% 30.07 in 10.0 mi East 9.2 mph - N/A   Clear
9:35 AM 39.2 °F 31.6 °F 28.4 °F 65% 30.06 in 10.0 mi East 12.7 mph - N/A   Clear
9:55 AM 39.2 °F 30.8 °F 30.2 °F 70% 30.05 in 10.0 mi East 15.0 mph - N/A   Clear
10:15 AM 42.8 °F 36.2 °F 30.2 °F 61% 30.05 in 10.0 mi East 12.7 mph 17.3 mph N/A   Clear
10:35 AM 42.8 °F 35.1 °F 30.2 °F 61% 30.04 in 10.0 mi East 16.1 mph 19.6 mph N/A   Clear
10:55 AM 44.6 °F 37.8 °F 30.2 °F 57% 30.04 in 10.0 mi East 15.0 mph - N/A   Clear
11:15 AM 44.6 °F 38.4 °F 30.2 °F 57% 30.03 in 10.0 mi East 12.7 mph 19.6 mph N/A   Clear
11:35 AM 46.4 °F 40.1 °F 32.0 °F 57% 30.02 in 10.0 mi East 15.0 mph 21.9 mph N/A   Clear
11:55 AM 46.4 °F 40.1 °F 30.2 °F 53% 30.01 in 10.0 mi ENE 15.0 mph 20.7 mph N/A   Clear
12:15 PM 46.4 °F 40.7 °F 32.0 °F 57% 30.00 in 10.0 mi East 12.7 mph - N/A   Clear
12:35 PM 46.4 °F 40.4 °F 33.8 °F 62% 29.98 in 10.0 mi ENE 13.8 mph - N/A   Clear
12:55 PM 46.4 °F 40.1 °F 32.0 °F 57% 29.97 in 10.0 mi East 15.0 mph 18.4 mph N/A   Clear
1:15 PM 46.4 °F 41.5 °F 32.0 °F 57% 29.96 in 10.0 mi ENE 10.4 mph 17.3 mph N/A   Clear
1:35 PM 48.2 °F - 32.0 °F 54% 29.95 in 10.0 mi ENE 10.4 mph - N/A   Clear
1:55 PM 46.4 °F 40.4 °F 32.0 °F 57% 29.95 in 10.0 mi ENE 13.8 mph - N/A   Clear
2:15 PM 48.2 °F - 33.8 °F 58% 29.93 in 10.0 mi ENE 15.0 mph 20.7 mph N/A   Clear
2:35 PM 48.2 °F - 32.0 °F 54% 29.92 in 10.0 mi ENE 12.7 mph - N/A   Clear
2:55 PM 46.4 °F 40.4 °F 30.2 °F 53% 29.92 in 10.0 mi ENE 13.8 mph 19.6 mph N/A   Clear
3:15 PM 46.4 °F 41.1 °F 32.0 °F 57% 29.91 in 10.0 mi ENE 11.5 mph - N/A   Clear
3:35 PM 48.2 °F - 32.0 °F 54% 29.89 in 10.0 mi NE 12.7 mph - N/A   Clear
3:55 PM 48.2 °F - 30.2 °F 50% 29.88 in 10.0 mi ENE 13.8 mph - N/A   Clear
4:15 PM 46.4 °F 40.4 °F 30.2 °F 53% 29.87 in 10.0 mi ENE 13.8 mph 23.0 mph N/A   Clear
4:35 PM 46.4 °F 40.7 °F 30.2 °F 53% 29.86 in 10.0 mi ENE 12.7 mph - N/A   Clear
4:55 PM 46.4 °F 40.7 °F 30.2 °F 53% 29.85 in 10.0 mi ENE 12.7 mph - N/A   Clear
5:15 PM 44.6 °F 38.4 °F 30.2 °F 57% 29.83 in 10.0 mi ENE 12.7 mph - N/A   Clear
5:35 PM 44.6 °F 38.8 °F 30.2 °F 57% 29.82 in 10.0 mi ENE 11.5 mph - N/A   Clear
5:55 PM 44.6 °F 38.1 °F 28.4 °F 53% 29.81 in 10.0 mi ENE 13.8 mph - N/A   Scattered Clouds
6:15 PM 42.8 °F 37.0 °F 30.2 °F 61% 29.80 in 10.0 mi NE 10.4 mph 17.3 mph N/A   Scattered Clouds
6:35 PM 42.8 °F 37.0 °F 30.2 °F 61% 29.81 in 10.0 mi ENE 10.4 mph - N/A   Scattered Clouds
6:55 PM 42.8 °F 35.8 °F 30.2 °F 61% 29.84 in 10.0 mi ENE 13.8 mph 17.3 mph N/A   Mostly Cloudy
7:15 PM 42.8 °F 36.2 °F 30.2 °F 61% 29.83 in 10.0 mi ENE 12.7 mph - N/A   Overcast
7:35 PM 42.8 °F 35.4 °F 30.2 °F 61% 29.83 in 10.0 mi ENE 15.0 mph - N/A   Mostly Cloudy
7:55 PM 42.8 °F 35.8 °F 30.2 °F 61% 29.81 in 10.0 mi ENE 13.8 mph 20.7 mph N/A   Overcast
8:15 PM 42.8 °F 35.8 °F 30.2 °F 61% 29.80 in 10.0 mi ENE 13.8 mph 19.6 mph N/A   Overcast
8:35 PM 42.8 °F 35.4 °F 30.2 °F 61% 29.79 in 10.0 mi ENE 15.0 mph 18.4 mph N/A   Overcast
8:55 PM 42.8 °F 34.5 °F 30.2 °F 61% 29.78 in 10.0 mi East 18.4 mph 23.0 mph N/A Rain Light Rain
9:15 PM 41.0 °F 32.2 °F 30.2 °F 65% 29.74 in 10.0 mi ENE 18.4 mph 25.3 mph N/A Rain Light Rain
9:35 PM 41.0 °F 31.6 °F 30.2 °F 65% 29.72 in 10.0 mi ENE 20.7 mph 24.2 mph N/A   Light Drizzle
9:55 PM 42.8 °F 34.3 °F 30.2 °F 61% 29.71 in 10.0 mi ENE 19.6 mph 27.6 mph N/A   Overcast
10:15 PM 42.8 °F 33.8 °F 30.2 °F 61% 29.71 in 10.0 mi ENE 21.9 mph 28.8 mph N/A   Overcast
10:35 PM 42.8 °F 33.8 °F 30.2 °F 61% 29.69 in 10.0 mi ENE 21.9 mph 29.9 mph N/A   Overcast
10:55 PM 42.8 °F 34.3 °F 30.2 °F 61% 29.68 in 10.0 mi ENE 19.6 mph 27.6 mph N/A   Overcast
11:15 PM 42.8 °F 33.1 °F 30.2 °F 61% 29.66 in 10.0 mi ENE 25.3 mph 31.1 mph N/A   Overcast
11:35 PM 42.8 °F 34.5 °F 30.2 °F 61% 29.65 in 10.0 mi ENE 18.4 mph 26.5 mph N/A   Overcast
11:55 PM 42.8 °F 35.1 °F 30.2 °F 61% 29.64 in 10.0 mi ENE 16.1 mph 23.0 mph N/A   Overcast